Location: ??
(35.5052°N, 139.7262°E)
Time: 01:42:12
(UTC+00:00)

OAO 1 - Pass Details

Date: 31 October 2021
Orbit: 773 x 784 km, 35.0° (Epoch: 01 December)

Event Time Altitude Azimuth Distance (km) Brightness Sun altitude
Rises 09:09:42 0° 279° (W) 3,246 9.3 -17.3°
Reaches altitude 10° 09:12:11 10° 276° (W) 2,319 8.2 -17.8°
Maximum altitude 09:17:35 61° 197° (SSW) 877 4.8 -18.9°
Enters shadow 09:20:23 28° 126° (SE) 1,418 5.5 -19.4°
